Regional Weather Roundup
Issued by NWS Charleston, SC

Current Version | Previous Version | Graphics & Text | Print | Product List | Glossary On
Versions: 1 2 3 4 5 6 7 8 9 10 11 12 13 14 15 16 17 18 19 20 21 22 23 24 25 26 27 28 29 30 31 32 33 34 35 36 37 38 39 40 41 42 43 44 45 46 47 48 49 50
000
ASUS42 KCHS 172312
RWRCHS

REGIONAL WEATHER ROUNDUP
NATIONAL WEATHER SERVICE CHARLESTON SC
700 PM EDT TUE OCT 17 2017

NOTE: "FAIR" INDICATES FEW OR NO CLOUDS BELOW 12,000 FEET WITH NO
SIGNIFICANT WEATHER AND/OR OBSTRUCTIONS TO VISIBILITY.

NOT ALL STATIONS ARE QUALITY CONTROLLED. USE DATA WITH CAUTION...
ESPECIALLY DEWPOINT OBSERVATIONS.

SCZ027-030-031-034>040-042>050-180000-
...SOUTHEAST SOUTH CAROLINA...

CITY           SKY/WX    TMP DP  RH WIND       PRES   REMARKS
N CHARLESTON   PTCLDY    60  46  59 NE6       30.23R
WATERFRONT PRK   N/A     66  48  52 NE9       30.08R
JOHNS ISLAND   FAIR      61  45  55 NE8       30.23R
PINOPOLIS        N/A     66  48  52 NE13      30.15S
MONCKS CORNER  FAIR      61  41  48 NE6       30.24S
SUMMERVILLE    FAIR      59  46  63 CALM      30.25R
BEAUFORT MCAS  CLEAR     64  46  52 NE10      30.23R
BEAUFORT ARPT  FAIR      64  45  48 NE16      30.22S
HILTON HEAD IS PTCLDY    64  43  45 NE14        N/A
WALTERBORO     CLEAR     59  43  55 NE3       30.24S
ALLENDALE      NOT AVBL

...SOUTHERN MIDLANDS AND PEE DEE...

CITY           SKY/WX    TMP DP  RH WIND       PRES   REMARKS
GEORGETOWN     FAIR      57  45  62 N3        30.25S
KINGSTREE      FAIR      55  46  71 CALM      30.25S
ORANGEBURG     CLEAR     62  39  42 NE3       30.25S
BARNWELL         N/A     64  41  42 NE3       30.25R
AIKEN          FAIR      61  39  44 NE3       30.28S
MANNING        HAZE      57  45  62 MISG      30.25S VSB<1/4
COLUMBIA       PTCLDY    65  42  43 CALM      30.25R
SUMTER         CLEAR     59  39  47 NE5       30.24R
FLORENCE       CLEAR     60  39  45 NE5       30.27R
MYRTLE BEACH   CLEAR     59  48  67 NE5       30.27R
N MYRTLE BEACH CLEAR     57  48  72 NE6       30.25S

$$

GAZ063-065-086>088-099>101-113>116-118-119-134>141-150-180000-
...SOUTHEAST GEORGIA...

CITY           SKY/WX    TMP DP  RH WIND       PRES   REMARKS
SAVANNAH ARPT  PTCLDY    64  42  44 NE7       30.22R
HUNTER AAF     CLEAR     64  42  44 NE7       30.19R
FORT STEWART   CLEAR     63  43  49 NE3       30.20R
STATESBORO     CLEAR     64  36  34 NE3       30.22S
SYLVANIA       CLEAR     62  44  52 NE5       30.24R
CLAXTON        FAIR      63  47  54 CALM      30.22R

...CSRA...CENTRAL AND FAR SOUTHEAST GEORGIA...

CITY           SKY/WX    TMP DP  RH WIND       PRES   REMARKS
THOMSON        CLEAR     62  45  53 E5        30.29S
AUGUSTA-BUSH   CLEAR     63  44  50 NE5       30.24R
AUGUSTA-DANIEL CLEAR     66  41  40 NE6       30.25S
SWAINSBORO     FAIR      63  45  51 MISG      30.23S
VIDALIA        CLEAR     64  45  48 NE7       30.21S
EASTMAN        FAIR      65  26  22 NE5       30.23S
HAZLEHURST     FAIR      66  25  21 NE3       30.20R
ALMA           CLEAR     65  42  43 VRB3      30.19R
WAYCROSS       CLEAR     66  40  38 NE6       30.19R
JESUP          NOT AVBL
BAXLEY         FAIR      63  39  42 NE7       30.20R
BRUNSWICK      CLEAR     64  45  48 NE12G18   30.20S
SAINT SIMONS   PTCLDY    66  56  70 NE16G25   30.19R

$$

SCZ027-028-034-036>038-045-046-048>050-GAZ119-141-180000-
...LAKE AND SUPPLEMENTAL COASTAL OBSERVATIONS...

STATION/POSITION TIME  TEMP    WIND        PRES    WAVE   SWELL
                       AIR SEA DIR/SP/G            HT/PER HT/PER/DIR
                 (UTC) (F)     (DEG/KT/KT) (MB)    (FT/S) (FT/S/D)
WINYAH BAY       NOT AVBL
LAKE MURRAY      2220   67      40/  2/  4 1023.4
ACE BASIN NERRS  2145   67     360/  3     1023.0
FORT PULASKI     2242   67 76   50/ 13/ 19 1023.2R
SAPELO ISLAND    2200   67      40/ 16     1022.0

$$

ANZ835-935-AMZ111-154-330-350-352-354-370-450-454-472-180000-
...C-MAN AND BUOY OBSERVATIONS...

STATION/POSITION TIME  TEMP    WIND        PRES    WAVE   SWELL
                       AIR SEA DIR/SP/G            HT/PER HT/PER/DIR
                 (UTC) (F)     (DEG/KT/KT) (MB)    (FT/S) (FT/S/D)
BUOY 41004       2250   69 80   40/ 21/ 29 1021.8S   9/11   5/110/11
BUOY 41008       2250   68 78   50/ 23/ 27 1021.1R   7/ 7   3/100/10
FOLLY BEACH CMAN 2200   65      30/ 14/ 16 1024.1R
CAPERS NEARSHORE 2208   64 76   40/ 17/ 25 1022.8R
FRIPP NEARSHORE  2208   68      40/ 14/ 19   N/A


STATION/POSITION TIME  TEMP    WIND        PRES    WAVE   SWELL
                       AIR SEA DIR/SP/G            HT/PER HT/PER/DIR
                 (UTC) (F)     (DEG/KT/KT) (MB)    (FT/S) (FT/S/D)
5E ST. MARYS GA  2230      79                N/A     8/ 6   2/ 90/11
FRYING PAN BUOY  2250   67 77   40/ 21/ 25 1023.0R   8/ 7   2/110/10
BUOY 41025       2250   65 81   10/ 19/ 23 1023.1R   7/10   5/ 80/10
CAPE LOOKOUT NC  2200   59      10/ 14/ 17 1024.2S
BUOY 41002       2250   74 79   40/ 25/ 33 1017.7R  13/ 9
BUOY 41010       NOT AVBL
ST AUGUSTINE FL  2300   74 80   10/ 29/ 32 1019.5R


$$



USA.gov is the U.S. government's official web portal to all federal, state and local government web resources and services.